Alpha, California Weather observations

Data are for observation ending at time listed.
 Day   Time    Ave.   Ave.  Ave.  Vector   Max.   Stn.    Total    Solar   Ave.   Snow 
  of    of     Air    Rel.  Wind   Wind    Wind   Baro.  Precip.   Rad.    Soil   Depth
Year   Day     Temp.  Hum.  Speed  Dir.    Gust   Pres.                    Temp.       
2026   (PST)    F      %     mph   deg.    mph     mb.     in.     W/m2     F      in. 
---------------------------------------------------------------------------------------  
 125   10:50   42.5    81    1.4   303      3.9   781.8    0.00     316    999.0  999.0
 125   11:00   42.7    78    1.8   274      4.5   781.9    0.00     202    999.0  999.0
 125   11:10   40.6    83    2.8   166      5.6   782.0    0.00     128    999.0  999.0
 125   11:20   39.9    84    3.5   181      5.0   782.1    0.00     177    999.0  999.0
 125   11:30   42.3    80    1.6   213      4.8   782.1    0.00     314    999.0  999.0
 125   11:40   43.1    76    2.4   192      5.1   782.2    0.00     188    999.0  999.0
 125   11:50   43.4    78    2.7   187      4.4   782.2    0.00     273    999.0  999.0
 125   12:00   43.9    76    2.5   177      4.1   782.2    0.00     344    999.0  999.0
 125   12:10   45.5    72    3.1   186      5.7   782.2    0.00     356    999.0  999.0
 125   12:20   44.2    77    2.7   179      5.1   782.2    0.00     243    999.0  999.0
 125   12:30   44.9    76    2.4   188      3.7   782.3    0.00     282    999.0  999.0
 125   12:40   44.2    77    3.5   143     10.1   782.3    0.00     254    999.0  999.0
 125   12:50   44.5    75    3.5    58      9.3   782.3    0.00     341    999.0  999.0
 125   13:00   44.6    76    3.0   340      9.8   782.4    0.00     255    999.0  999.0
 125   13:10   46.4    73    1.8   142      4.5   782.4    0.00     262    999.0  999.0
 125   13:20   45.9    68    4.5    94     10.1   782.5    0.00     328    999.0  999.0
 125   13:30   45.4    73    3.2    35     10.4   782.5    0.00     202    999.0  999.0
 125   13:40   45.3    74    2.1    17      5.3   782.5    0.00     190    999.0  999.0
 125   13:50   46.0    72    3.2    51      8.6   782.5    0.00     316    999.0  999.0
 125   14:00   45.8    70    2.5    35      6.7   782.5    0.00     178    999.0  999.0
 125   14:10   46.3    70    1.9   328      7.1   782.4    0.00     141    999.0  999.0
 125   14:20   45.5    76    2.1   227      5.3   782.4    0.00     145    999.0  999.0
 125   14:30   45.7    75    1.2   228      3.2   782.5    0.00     131    999.0  999.0
 125   14:40   45.7    76    2.3   268      6.9   782.4    0.00     214    999.0  999.0
 125   14:50   45.9    81    1.6   320      8.1   782.4    0.00     323    999.0  999.0
 125   15:00   46.5    80    2.5   311      6.6   782.4    0.00     231    999.0  999.0
 125   15:10   45.0    84    2.2   309      6.3   782.5    0.00     175    999.0  999.0
 125   15:20   45.4    83    1.9   330      5.0   782.5    0.00     145    999.0  999.0
 125   15:30   45.2    83    2.5   329      5.6   782.5    0.00     169    999.0  999.0
 125   15:40   46.2    81    1.6   324      3.8   782.5    0.00     194    999.0  999.0
 125   15:50   46.3    82    2.2   328      4.6   782.5    0.00     181    999.0  999.0
 125   16:00   45.9    82    2.8   334      5.3   782.5    0.00     115    999.0  999.0
 125   16:10   46.0    81    2.5   337      6.7   782.6    0.00      37    999.0  999.0
 125   16:20   45.9    79    3.2   332      7.7   782.7    0.00     115    999.0  999.0
 125   16:30   45.8    81    2.9   334      6.9   782.8    0.00     202    999.0  999.0
 125   16:40   46.3    80    2.9   336      5.5   782.8    0.00     178    999.0  999.0
 125   16:50   46.5    80    3.3   334      6.4   782.9    0.00     161    999.0  999.0
 125   17:00   46.6    79    3.3   338      7.2   782.9    0.00     160    999.0  999.0
 125   17:10   46.7    78    3.7   338     10.0   783.0    0.00     112    999.0  999.0
 125   17:20   45.4    82    3.4   336      7.5   783.2    0.00      72    999.0  999.0
 125   17:30   45.3    82    2.7   339      7.7   783.2    0.00      95    999.0  999.0
 125   17:40   46.7    77    3.2   335      7.8   783.2    0.00      96    999.0  999.0
 125   17:50   47.4    74    2.0   337      6.0   783.2    0.00      66    999.0  999.0
 125   18:00   47.4    76    1.9   323      3.8   783.3    0.00      50    999.0  999.0
 125   18:10   44.5    82    1.9   326      5.5   783.4    0.00      12    999.0  999.0
 125   18:20   41.9    87    1.8   338      4.2   783.4    0.00       7    999.0  999.0
 125   18:30   40.7    90    3.0     1      5.3   783.4    0.00       6    999.0  999.0
 125   18:40   40.6    92    1.8   348      3.6   783.5    0.00       8    999.0  999.0
 125   18:50   40.4    92    2.2   345      4.0   783.5    0.00       5    999.0  999.0
 125   19:00   40.3    92    2.6   352      4.9   783.6    0.00       2    999.0  999.0
 125   19:10   40.1    92    1.8   343      3.1   783.7    0.00       1    999.0  999.0
 125   19:20   40.2    92    1.9   348      3.4   783.8    0.00       0    999.0  999.0
 125   19:30   40.5    93    2.7   347      3.6   783.9    0.00       0    999.0  999.0
 125   19:40   40.8    93    2.8   344      4.5   784.1    0.00       0    999.0  999.0
 125   19:50   40.8    93    2.2   351      3.9   784.3    0.00       0    999.0  999.0
 125   20:00   41.6    93    2.5   349      3.7   784.4    0.00       0    999.0  999.0
 125   20:10   42.5    85    2.4   343      3.7   784.4    0.00       0    999.0  999.0
 125   20:20   42.7    78    2.0   344      3.3   784.4    0.00       0    999.0  999.0
 125   20:30   42.6    75    0.8   341      2.2   784.5    0.00       0    999.0  999.0
 125   20:40   42.2    75    1.0   343      1.8   784.6    0.00       0    999.0  999.0
 125   20:50   42.2    74    2.0   352      4.4   784.6    0.00       0    999.0  999.0
 125   21:00   42.4    73    1.6   350      2.7   784.7    0.00       0    999.0  999.0
 125   21:10   42.3    73    1.3   355      3.4   784.8    0.00       0    999.0  999.0
 125   21:20   42.6    71    1.9   353      3.1   784.8    0.00       0    999.0  999.0
 125   21:30   42.6    71    1.4   358      3.0   784.9    0.00       0    999.0  999.0
 125   21:40   42.5    71    2.0   357      3.9   785.0    0.00       0    999.0  999.0
 125   21:50   43.3    66    3.3     6      5.5   785.0    0.00       0    999.0  999.0
 125   22:00   44.3    63    2.1   360      5.2   785.1    0.00       0    999.0  999.0
 125   22:10   44.9    61    1.4   349      2.7   785.1    0.00       0    999.0  999.0
 125   22:20   45.3    60    1.6   359      2.8   785.1    0.00       0    999.0  999.0
 125   22:30   44.0    67    1.3    58      2.5   785.2    0.00       0    999.0  999.0
 125   22:40   42.9    75    2.0   134      4.2   785.3    0.00       0    999.0  999.0
 125   22:50   43.0    74    2.1   142      3.9   785.4    0.00       0    999.0  999.0
 125   23:00   42.9    75    2.1   136      3.8   785.5    0.00       0    999.0  999.0
 125   23:10   42.8    74    1.7   110      3.5   785.7    0.00       0    999.0  999.0
 125   23:20   44.4    65    1.9   109      3.7   785.7    0.00       0    999.0  999.0
 125   23:30   45.5    62    2.4   121      4.2   785.8    0.00       0    999.0  999.0
 125   23:40   45.3    63    0.9    26      2.1   785.8    0.00       0    999.0  999.0
 125   23:50   45.0    62    0.7    93      2.0   785.8    0.00       0    999.0  999.0
 126    0:00   45.7    62    1.4   126      3.5   785.9    0.00       0    999.0  999.0
 126    0:10   44.7    65    1.3   346      3.3   785.9    0.00       0    999.0  999.0
 126    0:20   44.9    65    0.9    52      4.2   786.0    0.00       0    999.0  999.0
 126    0:30   44.7    67    2.1   214      4.7   786.0    0.00       0    999.0  999.0
 126    0:40   44.9    66    3.4   206      5.0   786.0    0.00       0    999.0  999.0
 126    0:50   45.5    64    2.2   218      3.7   786.1    0.00       0    999.0  999.0
 126    1:00   45.8    62    1.8   210      3.5   786.0    0.00       0    999.0  999.0
 126    1:10   45.7    62    1.6   169      3.3   786.0    0.00       0    999.0  999.0
 126    1:20   45.9    62    1.8   168      3.0   786.0    0.00       0    999.0  999.0
 126    1:30   46.0    61    1.0   191      2.8   786.1    0.00       0    999.0  999.0
 126    1:40   46.2    60    0.6   193      2.9   786.1    0.00       0    999.0  999.0
 126    1:50   45.9    60    0.0    91      0.3   786.1    0.00       0    999.0  999.0
 126    2:00   45.9    59    0.7   318      1.9   786.2    0.00       0    999.0  999.0
 126    2:10   45.6    60    0.1   311      0.7   786.2    0.00       0    999.0  999.0
 126    2:20   45.4    61    0.6   173      1.4   786.2    0.00       0    999.0  999.0
 126    2:30   45.8    62    2.1   150      3.5   786.3    0.00       0    999.0  999.0
 126    2:40   45.8    62    2.6   131      4.6   786.4    0.00       0    999.0  999.0
 126    2:50   45.8    61    2.8   138      4.5   786.5    0.00       0    999.0  999.0
 126    3:00   45.7    59    3.1   130      6.1   786.6    0.00       0    999.0  999.0
 126    3:10   45.4    61    3.3   123      5.6   786.6    0.00       0    999.0  999.0
 126    3:20   45.4    60    2.3   113      3.4   786.6    0.00       0    999.0  999.0
 126    3:30   46.0    56    1.3    92      3.8   786.7    0.00       0    999.0  999.0
 126    3:40   46.4    54    1.3   300      2.6   786.8    0.00       0    999.0  999.0
 126    3:50   46.8    53    1.8   297      3.8   786.9    0.00       0    999.0  999.0
 126    4:00   46.8    51    1.3   334      4.2   786.9    0.00       0    999.0  999.0
 126    4:10   47.1    48    2.4     6      4.7   787.0    0.00       0    999.0  999.0
 126    4:20   48.2    39    2.7    41      5.1   787.1    0.00       0    999.0  999.0
 126    4:30   49.0    36    4.1    29      6.4   787.1    0.00       0    999.0  999.0
 126    4:40   49.8    34    4.9    28      9.1   787.1    0.00       0    999.0  999.0
 126    4:50   49.9    34    4.7    32      7.2   787.2    0.00       0    999.0  999.0
 126    5:00   49.6    34    3.7    29      5.2   787.3    0.00       1    999.0  999.0
 126    5:10   49.5    35    3.2    32      5.5   787.5    0.00       3    999.0  999.0
 126    5:20   49.5    35    3.3    32      5.6   787.6    0.00       7    999.0  999.0
 126    5:30   49.9    35    3.3    28      7.1   787.7    0.00      14    999.0  999.0
 126    5:40   50.4    34    3.1    28      4.8   787.8    0.00      11    999.0  999.0
 126    5:50   50.3    35    3.9    39      6.4   788.0    0.00      11    999.0  999.0
 126    6:00   50.6    36    3.6    30      6.2   788.0    0.00      20    999.0  999.0
 126    6:10   50.6    37    3.3    36      5.4   788.2    0.00      19    999.0  999.0
 126    6:20   51.0    37    3.2    42      5.8   788.3    0.00      21    999.0  999.0
 126    6:30   51.4    37    2.5    42      6.6   788.4    0.00      44    999.0  999.0
 126    6:40   51.3    39    1.6    92      5.8   788.5    0.00      45    999.0  999.0
 126    6:50   51.3    42    2.0   172      4.3   788.6    0.00     116    999.0  999.0
 126    7:00   51.6    41    1.7   243      4.7   788.7    0.00     160    999.0  999.0
 126    7:10   52.6    38    1.7   226      5.0   788.8    0.00     179    999.0  999.0
 126    7:20   53.5    37    0.8   320      3.8   788.9    0.00     198    999.0  999.0
 126    7:30   53.1    38    2.0   318      4.6   788.9    0.00     217    999.0  999.0
 126    7:40   53.2    42    2.2   144      4.8   789.0    0.00     234    999.0  999.0
 126    7:50   53.5    44    1.0   140      3.6   789.1    0.00     251    999.0  999.0
 126    8:00   54.4    45    1.1   133      3.8   789.2    0.00     268    999.0  999.0
 126    8:10   54.2    45    1.8   132      5.0   789.2    0.00     286    999.0  999.0
 126    8:20   52.6    52    3.2   127      5.5   789.3    0.00     304    999.0  999.0
 126    8:30   52.7    50    1.9   169      4.5   789.4    0.00     320    999.0  999.0
 126    8:40   53.3    50    3.3   119      6.4   789.4    0.00     336    999.0  999.0
 126    8:50   53.0    48    2.4    70      5.8   789.5    0.00     352    999.0  999.0
 126    9:00   53.7    47    2.2   112      6.6   789.5    0.00     368    999.0  999.0
 126    9:10   53.8    44    3.0    33      6.9   789.5    0.00     383    999.0  999.0
 126    9:20   54.0    38    3.8    39      7.0   789.6    0.00     397    999.0  999.0
 126    9:30   54.1    37    4.4    21     12.1   789.7    0.00     410    999.0  999.0
 126    9:40   54.1    35    4.8    20      9.9   789.8    0.00     423    999.0  999.0
 126    9:50   54.5    36    5.5    36     12.1   789.9    0.00     437    999.0  999.0
 126   10:00   54.6    35    5.3    23     11.0   789.9    0.00     447    999.0  999.0
 126   10:10   54.9    34    5.5    16     10.4   789.9    0.00     459    999.0  999.0
 126   10:20   55.5    33    4.9    28      9.6   789.9    0.00     471    999.0  999.0
 126   10:30   55.4    31    5.5    41     10.2   790.0    0.00     481    999.0  999.0
 126   10:40   55.9    31    5.0    31      8.2   790.0    0.00     489    999.0  999.0

Return to Alpha graphs page.


Western Regional Climate Center,wrcc@dri.edu